EW7595 Weather Reports


Display with metric or nautical units.
time (UTC)temp
F
wind
direction
speed
MPH
gust
MPH
rain 1hr
in
rain 24hr
in
rain mn
in
humidity
%
barometer
mb
20180920121711 0 0.0 0.0 0.00 0.06 0.01 1016.3
20180920120043 0 0.0 0.0 0.00 0.06 0.01 1016.2
20180920114239 0 0.0 0.0 0.00 0.06 0.01 1016.2
20180920112559 0 0.0 0.0 0.00 0.06 0.01 1016.1
20180920110802 0 0.0 0.0 0.00 0.06 0.01 1016.2
20180920105121 0 0.0 0.0 0.00 0.06 0.01 1016.2
20180920103328 44 49 0.0 1.0 0.00 0.06 0.01 100 1016.3
20180920101551 44 357 0.0 2.0 0.00 0.06 0.01 96 1016.3
20180920095903 44 66 0.0 4.0 0.00 0.06 0.01 96 1016.3
20180920094114 45 50 2.0 5.0 0.00 0.06 0.01 96 1016.5
20180920092437 45 58 4.0 7.0 0.00 0.06 0.01 96 1016.5
20180920090648 45 50 3.0 6.0 0.00 0.06 0.01 96 1016.5
20180920085001 45 63 2.0 6.0 0.00 0.06 0.01 96 1016.6
20180920083215 45 47 4.0 7.0 0.00 0.06 0.01 96 1016.7
20180920081534 45 48 1.0 6.0 0.00 0.06 0.01 95 1016.8
20180920075738 45 25 0.0 3.0 0.00 0.06 0.01 95 1017.1
20180920074102 45 46 0.0 3.0 0.01 0.06 0.01 95 1017.3
20180920072312 45 69 1.0 3.0 0.01 0.06 0.01 95 1017.5
20180920070524 45 56 1.0 2.0 0.01 0.06 0.01 95 1017.7
20180920064840 45 65 0.0 3.0 0.00 0.05 0.00 94 1018.2
20180920063132 45 48 1.0 4.0 0.00 0.05 0.00 94 1018.3
20180920061426 45 79 1.0 5.0 0.00 0.05 0.00 94 1018.4
20180920055628 45 48 1.0 4.0 0.00 0.05 0.05 93 1018.7
20180920053944 45 62 0.0 4.0 0.00 0.05 0.05 93 1018.8
20180920052158 45 25 0.0 4.0 0.00 0.05 0.05 93 1018.9
20180920050525 46 61 1.0 4.0 0.00 0.05 0.05 92 1019.1
20180920044736 46 72 4.0 8.0 0.00 0.05 0.05 92 1019.2
20180920043102 46 60 4.0 9.0 0.00 0.05 0.05 92 1019.0
20180920041303 46 50 4.0 8.0 0.00 0.05 0.05 92 1019.0
20180920035516 46 105 8.0 11.0 0.00 0.05 0.05 91 1019.0
20180920033832 46 56 7.0 11.0 0.00 0.05 0.05 90 1019.0
20180920032048 46 70 8.0 11.0 0.00 0.05 0.05 90 1019.1
20180920030408 46 64 6.0 9.0 0.00 0.05 0.05 89 1019.3
20180920024641 46 86 6.0 10.0 0.00 0.05 0.05 89 1019.3
20180920022946 47 68 6.0 11.0 0.00 0.05 0.05 89 1019.5
20180920021157 47 75 9.0 13.0 0.00 0.05 0.05 88 1019.4
20180920015516 47 54 7.0 16.0 0.00 0.05 0.05 88 1019.4
20180920013731 47 60 7.0 13.0 0.00 0.05 0.05 87 1019.5
20180920012055 48 47 8.0 13.0 0.00 0.05 0.05 85 1019.4
20180920010353 48 37 5.0 12.0 0.00 0.05 0.05 84 1019.3
20180920004545 48 89 6.0 12.0 0.00 0.05 0.05 83 1019.2
20180920002845 48 60 7.0 12.0 0.00 0.05 0.05 83 1019.2
20180920001056 48 70 6.0 11.0 0.00 0.05 0.05 83 1019.2
20180919235413 49 65 7.0 12.0 0.00 0.05 0.05 83 1019.3
20180919233626 49 46 6.0 11.0 0.00 0.05 0.05 83 1019.3
20180919231951 49 72 7.0 10.0 0.00 0.05 0.05 82 1019.2
20180919230201 49 72 4.0 11.0 0.00 0.05 0.05 80 1019.2
20180919224521 49 27 5.0 12.0 0.00 0.05 0.05 80 1019.3
20180919222729 49 53 5.0 11.0 0.00 0.05 0.05 81 1019.3
20180919221051 49 62 8.0 13.0 0.00 0.05 0.05 82 1019.2
20180919215302 50 64 7.0 14.0 0.00 0.05 0.05 82 1019.2
20180919213514 50 90 7.0 11.0 0.00 0.05 0.05 83 1019.3
20180919211837 50 89 5.0 12.0 0.00 0.05 0.05 83 1019.4
20180919210059 50 68 2.0 7.0 0.00 0.05 0.05 83 1019.7
20180919204411 49 69 5.0 7.0 0.00 0.05 0.05 84 1019.8
20180919202613 50 136 4.0 8.0 0.00 0.05 0.05 85 1019.9
20180919200932 49 98 1.0 6.0 0.00 0.05 0.05 86 1020.1
20180919195136 48 83 1.0 5.0 0.00 0.05 0.05 89 1020.2
20180919193500 47 107 2.0 6.0 0.00 0.05 0.05 91 1020.4
20180919191707 47 72 3.0 6.0 0.00 0.05 0.05 92 1020.6
20180919190109 47 96 2.0 5.0 0.00 0.05 0.05 93 1020.8
20180919184234 46 65 4.0 6.0 0.00 0.05 0.05 92 1021.0
20180919182604 46 71 2.0 8.0 0.05 0.05 0.05 93 1021.1
20180919180817 46 53 4.0 8.0 0.05 0.05 0.05 93 1021.1
20180919175135 46 52 2.0 6.0 0.05 0.05 0.05 93 1021.3
20180919173344 46 48 3.0 7.0 0.04 0.04 0.04 93 1021.5
20180919171703 45 41 4.0 6.0 0.00 0.00 0.00 92 1021.5
20180919165914 45 38 3.0 6.0 0.00 0.00 0.00 94 1021.4
20180919164129 44 358 1.0 5.0 0.00 0.00 0.00 94 1021.6
20180919162449 44 54 1.0 4.0 0.00 0.00 0.00 93 1021.7
20180919160659 44 10 1.0 5.0 0.00 0.00 0.00 93 1021.7
20180919155022 44 340 0.0 3.0 0.00 0.00 0.00 93 1021.6
20180919153231 44 16 0.0 4.0 0.00 0.00 0.00 93 1021.6
20180919151621 44 46 1.0 4.0 0.00 0.00 0.00 93 1021.5
20180919145756 44 39 0.0 4.0 0.00 0.00 0.00 93 1021.4
20180919144120 44 48 0.0 5.0 0.00 0.00 0.00 93 1021.1
20180919142327 0 0.0 0.0 0.00 0.00 0.00 1021.1
20180919140648 0 0.0 0.0 0.00 0.00 0.00 1021.0
20180919134900 0 0.0 0.0 0.00 0.00 0.00 1021.0
20180919133108 0 0.0 0.0 0.00 0.00 0.00 1020.8
20180919131428 0 0.0 0.0 0.00 0.00 0.00 1020.8
20180919125632 0 0.0 0.0 0.00 0.00 0.00 1020.8
20180919123956 0 0.0 0.0 0.00 0.00 0.00 1020.6